Location: LDNL
(36.4545°S, 141.6685°E)
Time: 18:54:06
(UTC+10:00)

UNISAT 6 - Visible Passes

Search period start: 16 May 2022 00:00
Search period end: 26 May 2022 00:00
Orbit: 606 x 685 km, 97.7° (Epoch: 15 May)

Date Brightness Start Highest point End Pass type
(mag) Time Alt. Az. Time Alt. Az. Time Alt. Az.
16 May ? 17:57:43 10° NNE 18:02:00 57° ESE 18:06:16 10° S visible
16 May ? 19:38:13 10° W 19:38:57 10° W 19:39:42 10° W visible
17 May ? 05:52:28 10° ESE 05:54:55 15° E 05:57:23 10° NE visible
17 May ? 18:22:49 10° N 18:27:10 71° W 18:31:31 10° SSW visible
18 May ? 06:16:29 10° SE 06:20:17 28° E 06:24:06 10° NNE visible
18 May ? 18:48:26 10° NNW 18:52:25 35° W 18:56:25 10° SSW visible
19 May ? 06:41:13 10° SSE 06:45:34 55° E 06:49:56 10° N visible
19 May ? 19:14:46 10° NW 19:17:45 18° W 19:20:45 10° SW visible
20 May ? 18:01:52 10° NNE 18:06:09 65° ESE 18:10:26 10° S visible
21 May ? 05:56:15 10° SE 05:59:08 17° E 06:02:01 10° NE visible
21 May ? 18:27:02 10° N 18:31:19 62° W 18:35:36 10° SSW visible
22 May ? 06:20:29 10° SSE 06:24:28 32° E 06:28:29 10° NNE visible
22 May ? 18:52:45 10° NNW 18:56:34 31° W 19:00:25 10° SW visible
23 May ? 06:45:17 10° SSE 06:49:43 63° E 06:54:11 10° N visible
23 May ? 19:19:15 10° NW 19:21:54 16° W 19:24:34 10° SW visible
24 May ? 18:05:56 10° NNE 18:10:14 74° ESE 18:14:33 10° S visible
25 May ? 06:00:04 10° SE 06:03:17 19° E 06:06:31 10° NE visible
25 May ? 18:31:12 10° N 18:35:25 54° W 18:39:39 10° SSW visible
